CAPE
0 0 0 0 0 0 0 0 0 0 0 0 0 0 0 1 24 49 195 187 173 115 37 27 2 4 404 479 456 620 543 549 415 586 643 335 102 116 132 317 281 137 888 1616
0 0 0 0 0 0 0 0 0 0 0 0 0 0 0 0 14 28 81 139 108 55 324 324 154 99 320 522 462 806 831 814 792 524 703 698 533 345 56 0 368 336 1050 1239
0 0 0 0 0 0 0 0 0 0 0 0 0 0 0 0 2 4 18 84 81 57 191 233 220 60 110 411 375 613 936 968 1032 1015 791 727 703 646 522 268 0 527 445 1291
0 0 0 0 0 0 0 0 0 0 0 0 0 0 0 0 0 0 0 4 73 45 165 267 271 119 178 154 143 679 700 1137 1276 1255 1182 1046 920 869 776 641 428 13 718 637
0 0 0 0 0 0 0 0 0 0 0 0 0 0 0 0 0 0 0 0 0 93 172 300 140 151 70 265 575 236 668 990 1222 1509 1386 1303 1209 1089 966 833 723 531 295 1247
0 0 0 0 0 0 0 0 0 0 0 0 0 0 0 0 0 0 0 0 0 0 70 160 433 201 336 366 203 655 744 1025 1087 1001 1456 1405 1310 1253 1118 1020 868 856 633 455
0 0 0 0 0 1 5 0 0 0 0 0 0 0 0 0 0 0 0 0 0 0 0 164 145 575 707 611 393 84 117 725 1128 1167 1000 1385 1350 1287 1235 1128 1036 976 987 843
0 0 0 0 0 0 0 0 0 0 0 0 0 0 0 0 0 0 0 0 0 0 0 4 154 334 694 762 693 379 36 70 321 687 801 1164 1338 1347 1297 1231 1158 1053 1113 1269
0 0 0 0 0 0 0 0 0 0 0 0 0 0 0 0 0 0 0 0 0 0 0 0 230 84 21 211 583 531 423 1006 585 1178 1347 1202 1273 1285 1325 1252 1344 1250 1105 1082
0 0 0 0 0 0 0 0 0 0 0 0 0 0 0 0 0 0 0 0 0 0 0 0 0 6 0 59 260 244 146 382 1342 1651 1650 1473 1304 1298 1365 1335 1295 1351 1362 1291
0 0 0 0 0 0 0 0 0 0 0 0 0 0 0 0 0 0 0 0 0 0 0 0 0 9 21 57 160 345 407 591 1136 1813 1797 1687 1637 1504 1510 1434 1400 1383 1372 1432
0 0 0 0 0 0 0 0 0 0 0 0 0 0 0 0 0 0 0 3 13 2 0 0 1 38 13 44 184 254 613 713 947 1997 2063 2094 1913 1913 1804 1657 1621 1654 1491 1608
0 0 0 0 0 16 0 0 0 0 0 0 0 0 9 0 0 5 0 55 32 8 0 0 0 7 65 19 77 180 387 822 1116 1505 2378 2494 2426 2127 2131 2015 1978 1935 1884 1862
0 0 0 0 0 3 4 0 0 0 0 0 0 0 0 7 13 18 30 18 22 30 29 5 3 6 28 8 86 42 76 430 1155 1682 2324 2574 2549 2569 2361 2217 2366 2439 2481 2367
0 0 0 0 0 2 12 13 0 0 0 0 0 0 0 0 14 34 8 10 17 16 57 11 11 3 8 0 6 116 286 620 936 1629 2550 2857 2674 2712 2595 2517 2414 2538 2741 2847
0 0 0 0 0 1 3 17 0 0 0 0 0 0 0 0 6 8 0 6 57 75 33 9 6 1 15 43 37 94 161 404 683 976 1741 2722 2710 2695 2641 2619 2502 2338 2357 2676
3 0 0 0 6 0 7 13 0 0 0 0 0 0 1 0 0 0 0 0 11 17 9 0 1 0 51 65 9 25 181 364 607 662 1322 1953 2150 1853 1874 2177 2236 2033 1901 2119
11 5 0 1 22 16 16 10 7 0 1 0 0 0 0 0 0 0 4 4 4 4 3 0 0 0 8 78 94 322 449 650 645 700 1206 1438 1837 2035 1583 1580 1450 1674 1844 1709
17 19 4 5 25 28 27 10 8 7 11 9 0 0 0 0 0 0 0 6 3 14 13 3 1 2 102 123 229 378 448 511 518 501 807 925 1291 1548 1614 1381 1348 1429 1501 1443
21 21 12 15 12 7 4 5 8 7 12 15 8 0 0 0 0 0 0 0 16 19 2 10 0 7 326 288 277 366 474 451 826 936 969 1021 1045 990 1037 1029 913 1076 1129 1033
32 30 41 45 13 16 4 13 7 16 4 0 0 0 0 0 0 0 0 0 0 11 10 3 0 1 178 195 84 182 496 705 668 459 395 529 658 678 557 570 765 576 484 722
0 2 2 7 16 7 5 7 18 28 5 0 0 0 0 0 0 0 0 0 0 0 1 4 4 0 2 5 45 11 226 401 449 369 380 346 304 180 96 142 229 10 367 479
7 22 31 8 11 0 11 6 22 40 14 0 0 0 0 0 0 0 0 0 0 0 0 1 2 0 0 5 47 1 5 20 28 61 286 172 84 19 16 99 73 49 6 6
0 1 1 1 0 2 3 5 43 28 8 0 0 0 0 0 0 0 0 0 0 0 0 0 0 0 0 0 0 13 4 0 0 4 14 9 0 0 0 0 9 51 10 1
65 13 4 0 0 0 22 17 3 5 7 0 0 0 9 2 0 0 0 0 0 0 0 0 0 0 0 0 0 0 0 9 4 10 17 0 3 1 0 13 50 40 51 21
26 16 13 0 0 4 10 3 1 6 6 6 1 0 0 0 3 0 0 0 0 0 0 0 0 0 0 0 0 0 3 0 0 0 3 3 5 15 0 4 2 3 2 11
12 19 14 5 0 0 0 1 1 8 16 23 21 10 0 0 1 7 16 3 0 0 0 0 0 0 0 0 0 0 0 0 0 0 0 0 0 1 3 2 1 1 5 6
CIN
-0 -0 -0 -0 -0 -0 -0 -0 -0 -0 -0 -0 -0 -0 -0 -23 -60 -63 -65 -70 -15 -32 -11 -17 -121 -49 -71 -117 -212 -268 -291 -247 -248 -198 -193 -185 -110 -237 -180 -172 -120 -236 -102 -42
-0 -0 -0 -0 -0 -0 -0 -0 -0 -0 -0 -0 -0 -0 -0 -0 -64 -32 -48 -72 -27 -77 -99 -214 -209 -185 -69 -86 -96 -157 -227 -247 -223 -209 -172 -187 -180 -154 -292 -0 -187 -129 -98 -87
-0 -0 -0 -0 -0 -0 -0 -0 -0 -0 -0 -0 -0 -0 -0 -0 -52 -50 -31 -25 -62 -96 -49 -66 -129 -414 -78 -57 -85 -98 -119 -171 -193 -181 -162 -169 -176 -155 -139 -165 -0 -172 -148 -51
-0 -0 -0 -0 -0 -0 -0 -0 -0 -0 -0 -0 -0 -0 -0 -0 -0 -0 -0 -33 -16 -25 -50 -53 -51 -216 -210 -201 -136 -33 -67 -125 -143 -124 -145 -89 -97 -113 -126 -131 -169 -177 -142 -130
-0 -0 -0 -0 -0 -0 -0 -0 -0 -0 -0 -0 -0 -0 -0 -0 -0 -0 -0 -0 -0 -13 -32 -57 -36 -54 -126 -167 -122 -197 -78 -65 -111 -76 -91 -69 -100 -112 -119 -117 -153 -185 -283 -72
-0 -0 -0 -0 -0 -0 -0 -0 -0 -0 -0 -0 -0 -0 -0 -0 -0 -0 -0 -0 -0 -0 -30 -14 -10 -91 -126 -117 -311 -135 -154 -112 -80 -99 -53 -30 -104 -116 -119 -104 -128 -133 -152 -192
-0 -0 -0 -0 -0 -7 -7 -0 -0 -0 -0 -0 -0 -0 -0 -0 -0 -0 -0 -0 -0 -0 -0 -0 -91 -39 -64 -155 -223 -484 -44 -143 -87 -112 -116 -50 -88 -104 -123 -124 -104 -132 -121 -141
-0 -0 -0 -0 -0 -0 -0 -0 -0 -0 -0 -0 -0 -0 -0 -0 -0 -0 -0 -0 -0 -0 -118 -113 -137 -89 -24 -37 -60 -250 -277 -91 -138 -63 -82 -76 -79 -93 -95 -106 -115 -112 -120 -103
-0 -0 -0 -0 -0 -0 -0 -0 -0 -0 -0 -0 -0 -0 -0 -0 -0 -0 -0 -0 -0 -0 -0 -0 -55 -151 -192 -191 -80 -96 -124 -150 -190 -206 -139 -94 -90 -89 -84 -92 -99 -117 -120 -166
-0 -0 -0 -0 -0 -0 -0 -0 -0 -0 -0 -0 -0 -0 -0 -0 -0 -0 -0 -0 -0 -0 -0 -0 -0 -255 -39 -229 -116 -201 -364 -242 -120 -109 -84 -63 -48 -46 -106 -120 -137 -125 -149 -181
-0 -0 -0 -0 -0 -0 -0 -0 -0 -0 -0 -0 -0 -0 -0 -0 -0 -0 -0 -0 -0 -0 -0 -0 -0 -245 -210 -170 -131 -78 -121 -105 -70 -63 -50 -69 -45 -75 -49 -158 -197 -135 -191 -168
-0 -0 -0 -0 -0 -0 -0 -0 -0 -0 -0 -0 -0 -0 -0 -0 -0 -0 -0 -1 -0 -1 -0 -0 -107 -280 -258 -123 -138 -134 -114 -101 -100 -72 -33 -52 -40 -22 -34 -45 -75 -68 -69 -145
-0 -0 -0 -0 -0 -6 -0 -0 -0 -0 -0 -0 -0 -0 -0 -0 -3 -0 -0 -2 -0 -0 -0 -0 -0 -206 -207 -216 -226 -172 -162 -88 -79 -68 -30 -12 -32 -32 -29 -24 -64 -72 -40 -66
-0 -0 -0 -0 -0 -3 -0 -0 -0 -0 -0 -0 -0 -0 -0 -0 -0 -0 -0 -0 -0 -0 -2 -9 -1 -104 -269 -217 -272 -300 -263 -186 -69 -56 -26 -1 -19 -20 -27 -19 -44 -33 -23 -16
-0 -13 -0 -0 -0 -9 -6 -3 -0 -0 -0 -0 -0 -0 -0 -0 -0 -1 -10 -0 -0 -0 -0 -25 -3 -6 -127 -0 -267 -259 -169 -136 -86 -50 -2 -5 -15 -13 -10 -17 -26 -28 -15 -3
-0 -0 -0 -0 -0 -8 -27 -1 -0 -0 -0 -0 -0 -0 -6 -0 -1 -1 -1 -1 -0 -0 -0 -1 -9 -262 -320 -321 -318 -319 -217 -167 -117 -93 -11 -5 -16 -9 -10 -8 -7 -16 -24 -11
-17 -0 -0 -0 -20 -0 -6 -2 -0 -0 -0 -0 -0 -0 -12 -0 -0 -0 -0 -0 -2 -0 -0 -0 -1 -0 -217 -276 -398 -428 -216 -173 -132 -115 -49 -1 -12 -16 -15 -6 -3 -8 -17 -7
-10 -4 -0 -4 -15 -6 -5 -5 -3 -1 -0 -0 -0 -0 -0 -0 -0 -0 -2 -0 -0 -0 -0 -0 -0 -0 -284 -163 -226 -119 -77 -98 -94 -63 -30 -14 -13 -5 -27 -13 -10 -4 -3 -0
-4 -10 -38 -39 -13 -15 -16 -13 -2 -0 -4 -3 -0 -0 -0 -0 -0 -0 -0 -1 -0 -0 -0 -0 -0 -0 -32 -83 -83 -63 -58 -57 -72 -108 -48 -51 -20 -8 -1 -2 -0 -1 -0 -0
-15 -21 -29 -42 -15 -24 -25 -15 -0 -0 -5 -1 -2 -0 -0 -0 -0 -0 -0 -0 -0 -0 -1 -0 -0 -6 -0 -0 -17 -4 -32 -32 -1 -0 -0 -0 -1 -0 -0 -0 -0 -0 -0 -0
-23 -30 -26 -9 -19 -29 -6 -10 -0 -1 -7 -0 -0 -0 -0 -0 -0 -0 -0 -0 -0 -0 -7 -2 -0 -3 -2 -5 -20 -9 -0 -0 -0 -12 -8 -14 -22 -0 -0 -0 -0 -4 -2 -0
-1 -29 -3 -22 -4 -17 -10 -11 -0 -1 -0 -0 -0 -0 -1 -0 -0 -0 -0 -0 -0 -0 -0 -0 -0 -0 -0 -0 -0 -103 -17 -5 -0 -0 -0 -0 -19 -24 -57 -1 -1 -17 -61 -0
-14 -11 -12 -35 -3 -0 -19 -16 -6 -3 -3 -0 -0 -0 -0 -0 -0 -0 -0 -0 -0 -0 -0 -0 -0 -0 -0 -0 -0 -0 -34 -41 -34 -50 -0 -2 -24 -35 -0 -0 -4 -1 -4 -4
-0 -9 -28 -5 -0 -1 -22 -36 -7 -14 -13 -0 -0 -0 -0 -0 -0 -0 -0 -0 -0 -0 -0 -0 -0 -0 -0 -0 -0 -0 -0 -0 -0 -0 -0 -0 -0 -1 -0 -0 -0 -0 -0 -0
-7 -9 -14 -0 -0 -0 -29 -24 -34 -28 -19 -0 -0 -0 -17 -4 -0 -0 -0 -0 -0 -0 -0 -0 -0 -0 -0 -0 -0 -0 -0 -0 -0 -0 -0 -0 -0 -4 -0 -0 -0 -0 -0 -8
-14 -13 -13 -0 -0 -6 -7 -45 -19 -20 -11 -13 -7 -0 -0 -1 -6 -0 -0 -0 -0 -0 -0 -0 -0 -0 -0 -0 -0 -0 -0 -0 -0 -0 -0 -0 -0 -0 -0 -0 -0 -0 -0 -0
-23 -46 -17 -5 -0 -11 -0 -7 -21 -18 -1 -0 -5 -18 -0 -0 -5 -1 -3 -4 -0 -0 -0 -0 -0 -0 -0 -0 -0 -0 -0 -0 -0 -0 -0 -0 -0 -0 -0 -0 -0 -0 -0 -0
Wind_Speed
nan nan nan nan nan nan nan nan nan nan nan nan nan nan nan nan nan nan 46 41 41 36 nan nan nan nan 32 33 18 9 4 4 7 15 16 17 18 16 18 21 16 16 17 15
nan nan nan nan nan nan nan nan nan nan nan nan nan nan nan nan nan nan nan 53 53 nan 31 42 35 nan 28 30 29 15 8 2 5 7 14 17 18 18 nan nan 18 19 17 15
nan nan nan nan nan nan nan nan nan nan nan nan nan nan nan nan nan nan nan nan nan nan 38 39 29 nan 43 38 38 35 17 9 5 5 4 10 21 21 18 16 nan 14 15 17
nan nan nan nan nan nan nan nan nan nan nan nan nan nan nan nan nan nan nan nan nan nan 43 39 37 37 45 44 39 37 37 18 12 6 5 7 16 21 21 22 17 nan 15 14
nan nan nan nan nan nan nan nan nan nan nan nan nan nan nan nan nan nan nan nan nan nan 49 43 45 35 nan 39 43 39 32 34 28 14 11 9 9 18 22 23 22 18 18 18
nan nan nan nan nan nan nan nan nan nan nan nan nan nan nan nan nan nan nan nan nan nan nan 47 51 40 46 34 36 38 25 33 31 28 15 10 9 15 24 24 22 26 21 19
nan nan nan nan nan nan nan nan nan nan nan nan nan nan nan nan nan nan nan nan nan nan nan 56 60 41 45 33 30 nan 43 44 36 29 23 14 13 17 22 23 24 24 21 22
nan nan nan nan nan nan nan nan nan nan nan nan nan nan nan nan nan nan nan nan nan nan nan nan 59 54 48 30 30 35 nan nan 45 31 25 20 14 15 16 21 20 20 22 22
nan nan nan nan nan nan nan nan nan nan nan nan nan nan nan nan nan nan nan nan nan nan nan nan 60 nan nan 36 40 39 36 51 51 37 24 12 13 11 19 19 21 22 22 21
nan nan nan nan nan nan nan nan nan nan nan nan nan nan nan nan nan nan nan nan nan nan nan nan nan nan nan nan 47 45 46 46 46 37 28 22 18 18 18 17 16 17 17 19
nan nan nan nan nan nan nan nan nan nan nan nan nan nan nan nan nan nan nan nan nan nan nan nan nan nan nan nan 48 41 38 29 40 39 26 28 27 25 17 12 11 11 9 17
nan nan nan nan nan nan nan nan nan nan nan nan nan nan nan nan nan nan nan nan nan nan nan nan nan nan nan nan 58 53 47 49 40 41 35 35 34 34 44 34 17 12 15 15
nan nan nan nan nan nan nan nan nan nan nan nan nan nan nan nan nan nan nan nan nan nan nan nan nan nan nan nan nan 60 45 41 43 46 44 39 34 33 28 37 42 35 21 17
nan nan nan nan nan nan nan nan nan nan nan nan nan nan nan nan nan nan nan nan nan nan nan nan nan nan nan nan nan nan nan 50 47 47 50 44 39 35 35 32 29 33 41 31
nan nan nan nan nan nan nan nan nan nan nan nan nan nan nan nan nan nan nan nan nan nan nan nan nan nan nan nan nan 53 56 52 49 51 51 45 45 42 43 41 38 38 43 41
nan nan nan nan nan nan nan nan nan nan nan nan nan nan nan nan nan nan nan nan nan nan nan nan nan nan nan nan nan nan 59 52 48 49 46 49 54 56 57 53 50 47 45 41
nan nan nan nan nan nan nan nan nan nan nan nan nan nan nan nan nan nan nan nan nan nan nan nan nan nan nan nan nan nan 57 54 51 50 47 44 48 51 57 58 54 52 53 52
nan nan nan nan nan nan nan nan nan nan nan nan nan nan nan nan nan nan nan nan nan nan nan nan nan nan nan nan nan 60 58 52 52 51 53 51 52 56 58 63 63 63 62 61
nan nan nan nan nan nan nan nan nan nan nan nan nan nan nan nan nan nan nan nan nan nan nan nan nan nan 71 89 97 69 63 59 51 54 56 56 60 63 63 60 60 63 65 67
nan nan nan nan nan nan nan nan nan nan nan nan nan nan nan nan nan nan nan nan nan nan nan nan nan nan 77 73 95 91 73 68 63 65 65 63 62 62 65 63 62 59 65 69
nan nan nan nan nan nan nan nan nan nan nan nan nan nan nan nan nan nan nan nan nan nan nan nan nan nan 69 73 nan 97 82 74 75 71 73 72 69 64 60 61 62 60 61 66
nan nan nan nan nan nan nan nan nan nan nan nan nan nan nan nan nan nan nan nan nan nan nan nan nan nan nan nan nan nan 88 82 72 73 71 70 64 63 nan 61 58 nan 51 65
nan nan nan nan nan nan nan nan nan nan nan nan nan nan nan nan nan nan nan nan nan nan nan nan nan nan nan nan nan nan nan nan nan nan 62 71 nan nan nan nan nan nan nan nan
nan nan nan nan nan nan nan nan nan nan nan nan nan nan nan nan nan nan nan nan nan nan nan nan nan nan nan nan nan nan nan nan nan nan nan nan nan nan nan nan nan nan nan nan
nan nan nan nan nan nan nan nan nan nan nan nan nan nan nan nan nan nan nan nan nan nan nan nan nan nan nan nan nan nan nan nan nan nan nan nan nan nan nan nan nan nan nan nan
nan nan nan nan nan nan nan nan nan nan nan nan nan nan nan nan nan nan nan nan nan nan nan nan nan nan nan nan nan nan nan nan nan nan nan nan nan nan nan nan nan nan nan nan
nan nan nan nan nan nan nan nan nan nan nan nan nan nan nan nan nan nan nan nan nan nan nan nan nan nan nan nan nan nan nan nan nan nan nan nan nan nan nan nan nan nan nan nan
Wind_Direction
nan nan nan nan nan nan nan nan nan nan nan nan nan nan nan nan nan nan 208 207 200 205 nan nan nan nan 206 196 223 212 250 246 201 210 228 221 213 214 217 219 211 227 243 246
nan nan nan nan nan nan nan nan nan nan nan nan nan nan nan nan nan nan nan 204 207 nan 197 176 185 nan 208 202 194 210 180 137 235 203 221 232 230 225 nan nan 221 222 234 252
nan nan nan nan nan nan nan nan nan nan nan nan nan nan nan nan nan nan nan nan nan nan 210 197 193 nan 221 212 217 200 181 171 219 247 212 235 235 234 224 221 nan 224 225 241
nan nan nan nan nan nan nan nan nan nan nan nan nan nan nan nan nan nan nan nan nan nan 207 222 236 209 202 210 229 215 200 198 200 213 225 228 233 229 228 228 229 nan 230 234
nan nan nan nan nan nan nan nan nan nan nan nan nan nan nan nan nan nan nan nan nan nan 211 214 224 212 nan 220 221 219 215 214 203 214 217 210 239 226 223 226 230 238 237 238
nan nan nan nan nan nan nan nan nan nan nan nan nan nan nan nan nan nan nan nan nan nan nan 215 219 241 200 217 228 198 216 226 215 202 212 199 218 220 217 217 218 223 229 235
nan nan nan nan nan nan nan nan nan nan nan nan nan nan nan nan nan nan nan nan nan nan nan 225 226 228 225 217 205 nan 220 224 217 203 188 187 201 206 219 219 221 224 225 235
nan nan nan nan nan nan nan nan nan nan nan nan nan nan nan nan nan nan nan nan nan nan nan nan 232 232 228 230 214 215 nan nan 214 188 189 194 200 198 207 222 226 229 234 231
nan nan nan nan nan nan nan nan nan nan nan nan nan nan nan nan nan nan nan nan nan nan nan nan 232 nan nan 225 218 214 203 191 183 177 176 199 219 211 210 215 221 225 231 234
nan nan nan nan nan nan nan nan nan nan nan nan nan nan nan nan nan nan nan nan nan nan nan nan nan nan nan nan 217 216 174 168 174 186 190 207 223 230 232 224 225 230 236 238
nan nan nan nan nan nan nan nan nan nan nan nan nan nan nan nan nan nan nan nan nan nan nan nan nan nan nan nan 233 225 218 198 196 212 223 209 220 225 225 237 252 254 244 245
nan nan nan nan nan nan nan nan nan nan nan nan nan nan nan nan nan nan nan nan nan nan nan nan nan nan nan nan 220 219 210 211 212 207 221 214 214 220 220 217 224 242 239 258
nan nan nan nan nan nan nan nan nan nan nan nan nan nan nan nan nan nan nan nan nan nan nan nan nan nan nan nan nan 216 213 221 208 211 213 217 216 223 227 224 227 230 243 251
nan nan nan nan nan nan nan nan nan nan nan nan nan nan nan nan nan nan nan nan nan nan nan nan nan nan nan nan nan nan nan 211 219 212 212 217 221 221 225 230 235 229 231 243
nan nan nan nan nan nan nan nan nan nan nan nan nan nan nan nan nan nan nan nan nan nan nan nan nan nan nan nan nan 212 208 213 213 215 211 216 224 226 230 232 233 236 234 234
nan nan nan nan nan nan nan nan nan nan nan nan nan nan nan nan nan nan nan nan nan nan nan nan nan nan nan nan nan nan 198 197 206 213 215 220 226 228 230 231 233 234 240 241
nan nan nan nan nan nan nan nan nan nan nan nan nan nan nan nan nan nan nan nan nan nan nan nan nan nan nan nan nan nan 199 205 208 218 223 226 231 236 235 237 236 236 235 237
nan nan nan nan nan nan nan nan nan nan nan nan nan nan nan nan nan nan nan nan nan nan nan nan nan nan nan nan nan 211 214 213 219 224 231 233 238 241 243 240 241 241 242 243
nan nan nan nan nan nan nan nan nan nan nan nan nan nan nan nan nan nan nan nan nan nan nan nan nan nan 224 223 221 216 213 220 227 227 232 237 240 243 247 248 246 244 244 248
nan nan nan nan nan nan nan nan nan nan nan nan nan nan nan nan nan nan nan nan nan nan nan nan nan nan 224 226 219 224 226 230 234 234 234 238 242 248 248 247 252 244 244 243
nan nan nan nan nan nan nan nan nan nan nan nan nan nan nan nan nan nan nan nan nan nan nan nan nan nan 223 229 nan 227 226 227 228 232 235 238 242 247 249 253 248 247 248 246
nan nan nan nan nan nan nan nan nan nan nan nan nan nan nan nan nan nan nan nan nan nan nan nan nan nan nan nan nan nan 219 224 229 234 234 239 242 244 nan 243 248 nan 240 248
nan nan nan nan nan nan nan nan nan nan nan nan nan nan nan nan nan nan nan nan nan nan nan nan nan nan nan nan nan nan nan nan nan nan 227 228 nan nan nan nan nan nan nan nan
nan nan nan nan nan nan nan nan nan nan nan nan nan nan nan nan nan nan nan nan nan nan nan nan nan nan nan nan nan nan nan nan nan nan nan nan nan nan nan nan nan nan nan nan
nan nan nan nan nan nan nan nan nan nan nan nan nan nan nan nan nan nan nan nan nan nan nan nan nan nan nan nan nan nan nan nan nan nan nan nan nan nan nan nan nan nan nan nan
nan nan nan nan nan nan nan nan nan nan nan nan nan nan nan nan nan nan nan nan nan nan nan nan nan nan nan nan nan nan nan nan nan nan nan nan nan nan nan nan nan nan nan nan
nan nan nan nan nan nan nan nan nan nan nan nan nan nan nan nan nan nan nan nan nan nan nan nan nan nan nan nan nan nan nan nan nan nan nan nan nan nan nan nan nan nan nan nan